This is the latest recevied weather packets stored in our database for station/object KC1ELF. If no packets are shown the sender has not sent any weather packets the latest 10 day(s).
| Time | Temp. | Humidity | Pressure | Rain* | Wind** | Luminosity | Snow |
|---|---|---|---|---|---|---|---|
| 1777735296 | 10.56° C | 84% | 1011.2 hPa | 0 mm | - | - | - |
| 1777734695 | 10.56° C | 83% | 1011.2 hPa | 0 mm | - | - | - |
| 1777734095 | 11.11° C | 85% | 1011.2 hPa | 0 mm | - | - | - |
| 1777733495 | 10° C | 84% | 1011.3 hPa | 0 mm | - | - | - |
| 1777732895 | 9.44° C | 89% | 1011.5 hPa | 0 mm | - | - | - |
| 1777732295 | 8.89° C | 87% | 1011.7 hPa | 0 mm | - | - | - |
| 1777731695 | 8.89° C | 89% | 1011.9 hPa | 0 mm | - | - | - |
| 1777731097 | 8.33° C | 90% | 1011.9 hPa | 0 mm | - | - | - |
| 1777730495 | 8.33° C | 90% | 1011.9 hPa | 0 mm | - | - | - |
| 1777729895 | 7.78° C | 91% | 1011.9 hPa | 0.51 mm | - | - | - |
| 1777729296 | 7.78° C | 90% | 1011.9 hPa | 0.76 mm | - | - | - |
| 1777728695 | 7.78° C | 90% | 1011.9 hPa | 1.02 mm | - | - | - |
| 1777728096 | 7.22° C | 90% | 1011.9 hPa | 1.02 mm | - | - | - |
| 1777727496 | 6.67° C | 91% | 1011.9 hPa | 1.02 mm | - | - | - |
| 1777726895 | 6.67° C | 89% | 1011.9 hPa | 1.02 mm | - | - | - |
| 1777726296 | 6.67° C | 89% | 1012.1 hPa | 1.02 mm | - | - | - |
| 1777725696 | 6.67° C | 88% | 1012.1 hPa | 1.02 mm | - | - | - |
| 1777725098 | 6.67° C | 88% | 1012.1 hPa | 1.02 mm | - | - | - |
| 1777724495 | 6.67° C | 88% | 1012.1 hPa | 1.02 mm | - | - | - |
| 1777723896 | 6.67° C | 88% | 1011.9 hPa | 1.02 mm | - | - | - |
| 1777723296 | 6.67° C | 87% | 1012.2 hPa | 1.02 mm | - | - | - |
| 1777722696 | 7.22° C | 85% | 1012 hPa | 0.51 mm | - | - | - |
| 1777722096 | 7.78° C | 84% | 1011.9 hPa | 0.25 mm | - | - | - |
| 1777721495 | 7.22° C | 84% | 1011.2 hPa | 0 mm | - | - | - |
| 1777720895 | 7.22° C | 83% | 1010.9 hPa | 0 mm | - | - | - |
* Rain latest hour (hover to see other rain measurements)
** Current wind speed in m/s (hover to see current wind gust speed)